星链-3305 (STARLINK-3305 )

导读

STARLINK-3305是美国SpaceX星链(Starlink)互联网卫星项目的一员,由美国于2021年12月18日发射入轨。它属于星链低轨卫星星座的组网卫星,为全球范围内用户提供高速低延迟的宽带互联网服务,尤其覆盖偏远地区,进一步扩充星链星座的服务覆盖范围与网络容量。

基本信息
目录编号:
50166
目录名称:
STARLINK-3305
国际标识:
2021-125L
轨道中心:
EARTH
卫星名称:
星链-3305
卫星全名:
星链-3305 (STARLINK-3305 )
卫星状态:
在轨 (已飞行1729 天)
发射日期:
2021-12-18 UTC
国别 :
美国 (US)
星等 :
--
该卫星已列入 空间交会检测服务 Space Conjunction Data Service (SCDS) ,当前飞行风险评估等级: 无高风险
轨道信息
数据来源 国际轨道数据 AOE轨道数据
星历时间 2026-09-11T23:07:39+0800
14小时前
查看轨道信息
2026-09-10T23:00:00+0800
1天前
查看轨道信息
半长轴 6848.852km 6848.869km
偏心率 0.0001407 0.0000958
轨道倾角 53.159° 53.158°
近地点辐角 119.653° 167.593°
升交点赤经 123.078° 127.761°
平近点角 240.461° 46.037°
近地点 469.751km 470.075km
远地点 471.679km 471.389km
周期 94.013分钟 94.013分钟
每日圈数 15.317087 15.31703
详细信息
固有亮度:
5
最大亮度:
2.5
卫星平台:
Starlink v1.5
覆盖范围:
全球
运营商:
太空探索技术公司
运营商所在国:
美国
制造商(研发单位):
太空探索技术公司
制造商所在国:
美国
使用方式:
暂无
卫星简介
星链(Starlink)计划是由太空探索技术公司(SpaceX)提出的一个巨型低轨卫星互联网星座项目,计划在2019年至2024年间在太空搭建由约1.2万颗卫星组成的“星链”网络,其中1584颗将部署在地球上空550千米处的近地轨道,并从2020年开始工作。该卫星仍在工作。
2D轨道图
3D轨道图
轨道高度分析图
轨道倾角分析图
轨道综合分析图
查看轨道综合分析图
交会数据列表
事件ID 空间交会对象 最接近时刻(TCA) 交会距离 交会风险概率(CRP) 交会风险指数(CRI) 操作
CDM_260912-215205-016605-720324
2026-09-12T
21:52:05+0000
1.655 km
极远距离
4.81345E-6 低风险 0.49
CDM_260912-052205-016605-717324
OBJECT H (57173)
2026-09-12T
05:22:25+0000
2.170 km
极远距离
2.327918E-6 低风险 0.42
CDM_260913-224305-016606-878321
2026-09-13T
22:43:17+0000
2.421 km
极远距离
1.860632E-6 低风险 0.4
CDM_260913-114005-016606-934021
2026-09-13T
11:40:43+0000
2.511 km
极远距离
1.736991E-6 低风险 0.4
CDM_260913-163605-016605-319722
2026-09-13T
16:36:06+0000
2.752 km
极远距离
1.488912E-6 低风险 0.38
CDM_260913-004705-016606-566221
2026-09-13T
00:47:40+0000
2.860 km
极远距离
1.420682E-6 低风险 0.38
CDM_260913-084705-016606-758521
2026-09-13T
08:47:06+0000
2.977 km
极远距离
1.339371E-6 低风险 0.38
与全量物体交会距离演化趋势
与全量物体交会风险概率演化趋势